Camarillo, CA

7:09 PM PDT on July 22, 2017 (GMT -0700)
Camarillo

Weather History for KCMA - January, 2013

Change the Weather History Date:

Tuesday, January 1, 2013

  Actual Average Record
Temperature  
Mean Temperature 50 °F 54 °F  
Max Temperature 62 °F 65 °F 85 °F (2012)
Min Temperature 37 °F 43 °F 28 °F (1960)
Degree Days  
Heating Degree Days 15 11  
Month to date heating degree days 15 11  
Since 1 July heating degree days 561 692  
Cooling Degree Days 0 0  
Month to date cooling degree days 0 0  
Year to date cooling degree days 0 0  
Moisture  
Dew Point 22 °F    
Average Humidity 50    
Maximum Humidity 82    
Minimum Humidity 17    
Precipitation  
Precipitation 0.00 in 0.15 in 0.74 in (2006)
Month to date precipitation 0.00 0.15  
Year to date precipitation 0.00 0.15  
Since 1 July precipitation 2.71  
Sea Level Pressure  
Sea Level Pressure 30.20 in    
Wind  
Wind Speed 10 mph (NE)    
Max Wind Speed 24 mph    
Max Gust Speed 33 mph    
Visibility 10 miles    
Events      
T = Trace of Precipitation, MM = Missing Value Source: NWS Daily Summary

Daily Weather History Graph

Daily Weather History Graph

Search for Another Location

Airport or City:

Trip Planner

Search our weather history database for the weather conditions in past years. The results will help you decide how hot, cold, wet, or windy it might be!

Date:

Astronomy

Jan. 01, 2013 Rise Set
Actual Time 7:02 AM PST 4:58 PM PST
Civil Twilight 6:34 AM PST 5:25 PM PST
Nautical Twilight 6:03 AM PST 5:57 PM PST
Astronomical Twilight 5:32 AM PST 6:27 PM PST
Moon 9:21 PM PST (1/1) 9:28 AM PST (1/1)
Length of Visible Light 10h 51m
Length of Day
9h 55m
Waning Gibbous, 82% of the Moon is Illuminated
Jan 1
Waning Gibbous
Jan 4
Last Quarter
Jan 11
New
Jan 18
First Quarter
Jan 26
Full

Hourly Weather History & Observations

Time (PST) Temp. Windchill Dew Point Humidity Pressure Visibility Wind Dir Wind Speed Gust Speed Precip Events Conditions
12:55 AM 37.9 °F 35.5 °F 32.0 °F 79% 30.26 in 10.0 mi NW 3.5 mph - N/A   Clear
1:55 AM 41.0 °F - 33.1 °F 73% 30.27 in 10.0 mi Calm Calm - N/A   Clear
3:55 AM 39.9 °F - 32.0 °F 73% 30.24 in 10.0 mi Calm Calm - N/A   Clear
4:55 AM 39.9 °F - 32.0 °F 73% 30.23 in 10.0 mi Calm Calm - N/A   Clear
5:55 AM 37.9 °F 33.5 °F 30.9 °F 76% 30.23 in 10.0 mi West 5.8 mph - N/A   Clear
7:55 AM 42.1 °F 40.2 °F 34.0 °F 73% 30.25 in 10.0 mi WNW 3.5 mph - N/A   Overcast
8:55 AM 48.0 °F - 36.0 °F 63% 30.27 in 10.0 mi Calm Calm - N/A   Mostly Cloudy
10:55 AM 57.9 °F - 28.9 °F 33% 30.23 in 10.0 mi ENE 11.5 mph - N/A   Overcast
11:55 AM 61.0 °F - 21.0 °F 21% 30.18 in 10.0 mi ENE 17.3 mph - N/A   Overcast
12:55 PM 61.0 °F - 21.9 °F 22% 30.15 in 10.0 mi NE 17.3 mph 24.2 mph N/A   Mostly Cloudy
2:55 PM 61.0 °F - 17.1 °F 18% 30.14 in 10.0 mi ENE 21.9 mph 31.1 mph N/A   Mostly Cloudy
3:55 PM 60.1 °F - 18.0 °F 20% 30.14 in 10.0 mi ENE 15.0 mph - N/A   Mostly Cloudy
4:55 PM 60.1 °F - 16.0 °F 18% 30.14 in 10.0 mi ENE 15.0 mph - N/A   Overcast
5:55 PM 59.0 °F - 16.0 °F 19% 30.15 in 10.0 mi ENE 13.8 mph - N/A   Overcast
6:55 PM 57.9 °F - 15.1 °F 19% 30.17 in 10.0 mi ENE 15.0 mph 23.0 mph N/A   Clear
7:55 PM 57.9 °F - 14.0 °F 18% 30.18 in 10.0 mi East 11.5 mph - N/A   Clear
8:55 PM 57.0 °F - 12.9 °F 18% 30.18 in 10.0 mi ENE 12.7 mph 23.0 mph N/A   Clear
9:55 PM 57.0 °F - 12.9 °F 18% 30.19 in 10.0 mi ENE 13.8 mph 24.2 mph N/A   Clear
10:55 PM 57.0 °F - 12.9 °F 18% 30.19 in 10.0 mi ENE 16.1 mph 25.3 mph N/A   Clear
11:55 PM 55.9 °F - 12.9 °F 18% 30.18 in 10.0 mi East 11.5 mph 23.0 mph N/A   Clear